<?xml version="1.0" encoding="UTF-8" standalone="no" ?>
<gpx xmlns="http://www.topografix.com/GPX/1/1" xmlns:xsi="http://www.w3.org/2001/XMLSchema-instance" xsi:schemaLocation="http://www.topografix.com/GPX/1/1 http://www.topografix.com/GPX/1/1/gpx.xsd" version="1.1" creator="VisuGPX - https://www.visugpx.com">
  <metadata>
    <name>Rando 3 - Caselles du ravin du Capelier</name>
    <desc><![CDATA[Rando 3 - Caselles du ravin du Capelier]]></desc>
  </metadata>
  <trk>
    <name><![CDATA[FOOTN3]]></name>
    <trkseg>
      <trkpt lat="44.08322" lon="2.96114">
        <ele>346.6</ele>
        <time>2012-05-02T12:48:20Z</time>
      </trkpt>
      <trkpt lat="44.08322" lon="2.96065">
        <ele>345.7</ele>
        <time>2012-05-02T12:48:20Z</time>
      </trkpt>
      <trkpt lat="44.08355" lon="2.96036">
        <ele>349</ele>
        <time>2012-05-02T12:48:20Z</time>
      </trkpt>
      <trkpt lat="44.08371" lon="2.96015">
        <ele>351.1</ele>
        <time>2012-05-02T12:48:20Z</time>
      </trkpt>
      <trkpt lat="44.0837" lon="2.95995">
        <ele>351.5</ele>
        <time>2012-05-02T12:48:20Z</time>
      </trkpt>
      <trkpt lat="44.08379" lon="2.95982">
        <ele>352.9</ele>
        <time>2012-05-02T12:48:20Z</time>
      </trkpt>
      <trkpt lat="44.08371" lon="2.95963">
        <ele>352.3</ele>
        <time>2012-05-02T12:48:20Z</time>
      </trkpt>
      <trkpt lat="44.08369" lon="2.95945">
        <ele>351.8</ele>
        <time>2012-05-02T12:48:20Z</time>
      </trkpt>
      <trkpt lat="44.08375" lon="2.95904">
        <ele>351.6</ele>
        <time>2012-05-02T12:48:20Z</time>
      </trkpt>
      <trkpt lat="44.08387" lon="2.95851">
        <ele>351.9</ele>
        <time>2012-05-02T12:48:20Z</time>
      </trkpt>
      <trkpt lat="44.08401" lon="2.95794">
        <ele>351.9</ele>
        <time>2012-05-02T12:48:20Z</time>
      </trkpt>
      <trkpt lat="44.08414" lon="2.95726">
        <ele>350.3</ele>
        <time>2012-05-02T12:48:20Z</time>
      </trkpt>
      <trkpt lat="44.08416" lon="2.95693">
        <ele>349.4</ele>
        <time>2012-05-02T12:48:20Z</time>
      </trkpt>
      <trkpt lat="44.08411" lon="2.95651">
        <ele>347.5</ele>
        <time>2012-05-02T12:48:20Z</time>
      </trkpt>
      <trkpt lat="44.08426" lon="2.9564">
        <ele>349.3</ele>
        <time>2012-05-02T12:48:20Z</time>
      </trkpt>
      <trkpt lat="44.0848" lon="2.95623">
        <ele>357.4</ele>
        <time>2012-05-02T12:48:20Z</time>
      </trkpt>
      <trkpt lat="44.08556" lon="2.95598">
        <ele>368.5</ele>
        <time>2012-05-02T12:48:20Z</time>
      </trkpt>
      <trkpt lat="44.08583" lon="2.95593">
        <ele>373.1</ele>
        <time>2012-05-02T12:48:20Z</time>
      </trkpt>
      <trkpt lat="44.08593" lon="2.95591">
        <ele>374.8</ele>
        <time>2012-05-02T12:48:20Z</time>
      </trkpt>
      <trkpt lat="44.08602" lon="2.95579">
        <ele>375.8</ele>
        <time>2012-05-02T12:48:20Z</time>
      </trkpt>
      <trkpt lat="44.08609" lon="2.9557">
        <ele>376.5</ele>
        <time>2012-05-02T12:48:20Z</time>
      </trkpt>
      <trkpt lat="44.08616" lon="2.95572">
        <ele>377.9</ele>
        <time>2012-05-02T12:48:20Z</time>
      </trkpt>
      <trkpt lat="44.0863" lon="2.9558">
        <ele>380.6</ele>
        <time>2012-05-02T12:48:20Z</time>
      </trkpt>
      <trkpt lat="44.08643" lon="2.95587">
        <ele>383.1</ele>
        <time>2012-05-02T12:48:20Z</time>
      </trkpt>
      <trkpt lat="44.08672" lon="2.95589">
        <ele>387.9</ele>
        <time>2012-05-02T12:48:20Z</time>
      </trkpt>
      <trkpt lat="44.08729" lon="2.95592">
        <ele>398.5</ele>
        <time>2012-05-02T12:48:20Z</time>
      </trkpt>
      <trkpt lat="44.08762" lon="2.95592">
        <ele>406</ele>
        <time>2012-05-02T12:48:20Z</time>
      </trkpt>
      <trkpt lat="44.0882" lon="2.95574">
        <ele>422.7</ele>
        <time>2012-05-02T12:48:20Z</time>
      </trkpt>
      <trkpt lat="44.08874" lon="2.95556">
        <ele>438.6</ele>
        <time>2012-05-02T12:48:20Z</time>
      </trkpt>
      <trkpt lat="44.0888" lon="2.95545">
        <ele>440.9</ele>
        <time>2012-05-02T12:48:20Z</time>
      </trkpt>
      <trkpt lat="44.08879" lon="2.95534">
        <ele>443</ele>
        <time>2012-05-02T12:48:20Z</time>
      </trkpt>
      <trkpt lat="44.08869" lon="2.95521">
        <ele>443.2</ele>
        <time>2012-05-02T12:48:20Z</time>
      </trkpt>
      <trkpt lat="44.08835" lon="2.95476">
        <ele>442.2</ele>
        <time>2012-05-02T12:48:20Z</time>
      </trkpt>
      <trkpt lat="44.08813" lon="2.95428">
        <ele>440.1</ele>
        <time>2012-05-02T12:48:20Z</time>
      </trkpt>
      <trkpt lat="44.08805" lon="2.95308">
        <ele>444.3</ele>
        <time>2012-05-02T12:48:20Z</time>
      </trkpt>
      <trkpt lat="44.0881" lon="2.95302">
        <ele>447.2</ele>
        <time>2012-05-02T12:48:20Z</time>
      </trkpt>
      <trkpt lat="44.08816" lon="2.95328">
        <ele>448.6</ele>
        <time>2012-05-02T12:48:20Z</time>
      </trkpt>
      <trkpt lat="44.08842" lon="2.95362">
        <ele>458.8</ele>
        <time>2012-05-02T12:48:20Z</time>
      </trkpt>
      <trkpt lat="44.08871" lon="2.95389">
        <ele>469</ele>
        <time>2012-05-02T12:48:20Z</time>
      </trkpt>
      <trkpt lat="44.08914" lon="2.95413">
        <ele>480.9</ele>
        <time>2012-05-02T12:48:20Z</time>
      </trkpt>
      <trkpt lat="44.08963" lon="2.95443">
        <ele>490.4</ele>
        <time>2012-05-02T12:48:20Z</time>
      </trkpt>
      <trkpt lat="44.09013" lon="2.95481">
        <ele>497.2</ele>
        <time>2012-05-02T12:48:20Z</time>
      </trkpt>
      <trkpt lat="44.09054" lon="2.9554">
        <ele>496.5</ele>
        <time>2012-05-02T12:48:20Z</time>
      </trkpt>
      <trkpt lat="44.09067" lon="2.95564">
        <ele>500.5</ele>
        <time>2012-05-02T12:48:20Z</time>
      </trkpt>
      <trkpt lat="44.09066" lon="2.95577">
        <ele>499.7</ele>
        <time>2012-05-02T12:48:20Z</time>
      </trkpt>
      <trkpt lat="44.09058" lon="2.95594">
        <ele>495.9</ele>
        <time>2012-05-02T12:48:20Z</time>
      </trkpt>
      <trkpt lat="44.09044" lon="2.9562">
        <ele>490</ele>
        <time>2012-05-02T12:48:20Z</time>
      </trkpt>
      <trkpt lat="44.09029" lon="2.95652">
        <ele>490.1</ele>
        <time>2012-05-02T12:48:20Z</time>
      </trkpt>
      <trkpt lat="44.09015" lon="2.95691">
        <ele>493.2</ele>
        <time>2012-05-02T12:48:20Z</time>
      </trkpt>
      <trkpt lat="44.09013" lon="2.95713">
        <ele>496.6</ele>
        <time>2012-05-02T12:48:20Z</time>
      </trkpt>
      <trkpt lat="44.09018" lon="2.95732">
        <ele>500.1</ele>
        <time>2012-05-02T12:48:20Z</time>
      </trkpt>
      <trkpt lat="44.0903" lon="2.9575">
        <ele>506.1</ele>
        <time>2012-05-02T12:48:20Z</time>
      </trkpt>
      <trkpt lat="44.09042" lon="2.95759">
        <ele>511.2</ele>
        <time>2012-05-02T12:48:20Z</time>
      </trkpt>
      <trkpt lat="44.09041" lon="2.95759">
        <ele>523.5</ele>
        <time>2012-05-02T08:53:42Z</time>
      </trkpt>
      <trkpt lat="44.09049" lon="2.95761">
        <ele>524.8</ele>
        <time>2012-05-02T08:54:00Z</time>
      </trkpt>
      <trkpt lat="44.09057" lon="2.95763">
        <ele>525</ele>
        <time>2012-05-02T08:54:10Z</time>
      </trkpt>
      <trkpt lat="44.09066" lon="2.95766">
        <ele>528.1</ele>
        <time>2012-05-02T08:54:20Z</time>
      </trkpt>
      <trkpt lat="44.09075" lon="2.95767">
        <ele>528.9</ele>
        <time>2012-05-02T08:54:29Z</time>
      </trkpt>
      <trkpt lat="44.09076" lon="2.95767">
        <ele>529.3</ele>
        <time>2012-05-02T08:54:30Z</time>
      </trkpt>
      <trkpt lat="44.09092" lon="2.95766">
        <ele>534.1</ele>
        <time>2012-05-02T08:54:44Z</time>
      </trkpt>
      <trkpt lat="44.09099" lon="2.95765">
        <ele>534.8</ele>
        <time>2012-05-02T08:54:50Z</time>
      </trkpt>
      <trkpt lat="44.09107" lon="2.95764">
        <ele>535.2</ele>
        <time>2012-05-02T08:54:56Z</time>
      </trkpt>
      <trkpt lat="44.09115" lon="2.95763">
        <ele>535.7</ele>
        <time>2012-05-02T08:55:02Z</time>
      </trkpt>
      <trkpt lat="44.09124" lon="2.95761">
        <ele>536.8</ele>
        <time>2012-05-02T08:55:09Z</time>
      </trkpt>
      <trkpt lat="44.09132" lon="2.95759">
        <ele>537.1</ele>
        <time>2012-05-02T08:55:15Z</time>
      </trkpt>
      <trkpt lat="44.09139" lon="2.95758">
        <ele>538.8</ele>
        <time>2012-05-02T08:55:21Z</time>
      </trkpt>
      <trkpt lat="44.09148" lon="2.95756">
        <ele>541.2</ele>
        <time>2012-05-02T08:55:28Z</time>
      </trkpt>
      <trkpt lat="44.09156" lon="2.95753">
        <ele>543</ele>
        <time>2012-05-02T08:55:35Z</time>
      </trkpt>
      <trkpt lat="44.09158" lon="2.95753">
        <ele>543.2</ele>
        <time>2012-05-02T08:55:36Z</time>
      </trkpt>
      <trkpt lat="44.09173" lon="2.95748">
        <ele>545.2</ele>
        <time>2012-05-02T08:55:48Z</time>
      </trkpt>
      <trkpt lat="44.09181" lon="2.95746">
        <ele>546.1</ele>
        <time>2012-05-02T08:55:55Z</time>
      </trkpt>
      <trkpt lat="44.09189" lon="2.95744">
        <ele>546.3</ele>
        <time>2012-05-02T08:56:01Z</time>
      </trkpt>
      <trkpt lat="44.09198" lon="2.95743">
        <ele>546.8</ele>
        <time>2012-05-02T08:56:08Z</time>
      </trkpt>
      <trkpt lat="44.09207" lon="2.9574">
        <ele>548.2</ele>
        <time>2012-05-02T08:56:15Z</time>
      </trkpt>
      <trkpt lat="44.09215" lon="2.95739">
        <ele>549.5</ele>
        <time>2012-05-02T08:56:22Z</time>
      </trkpt>
      <trkpt lat="44.09223" lon="2.95738">
        <ele>549.5</ele>
        <time>2012-05-02T08:56:29Z</time>
      </trkpt>
      <trkpt lat="44.09231" lon="2.95736">
        <ele>551.4</ele>
        <time>2012-05-02T08:56:36Z</time>
      </trkpt>
      <trkpt lat="44.09232" lon="2.95736">
        <ele>552</ele>
        <time>2012-05-02T08:56:37Z</time>
      </trkpt>
      <trkpt lat="44.09248" lon="2.95734">
        <ele>554.2</ele>
        <time>2012-05-02T08:56:51Z</time>
      </trkpt>
      <trkpt lat="44.09257" lon="2.95734">
        <ele>555.1</ele>
        <time>2012-05-02T08:56:59Z</time>
      </trkpt>
      <trkpt lat="44.09265" lon="2.95731">
        <ele>555.5</ele>
        <time>2012-05-02T08:57:58Z</time>
      </trkpt>
      <trkpt lat="44.09266" lon="2.95731">
        <ele>555.4</ele>
        <time>2012-05-02T08:57:59Z</time>
      </trkpt>
      <trkpt lat="44.09282" lon="2.95733">
        <ele>557.3</ele>
        <time>2012-05-02T08:58:13Z</time>
      </trkpt>
      <trkpt lat="44.0929" lon="2.95733">
        <ele>558.1</ele>
        <time>2012-05-02T08:58:19Z</time>
      </trkpt>
      <trkpt lat="44.09298" lon="2.95732">
        <ele>559.5</ele>
        <time>2012-05-02T08:58:25Z</time>
      </trkpt>
      <trkpt lat="44.09307" lon="2.95731">
        <ele>561.2</ele>
        <time>2012-05-02T08:58:32Z</time>
      </trkpt>
      <trkpt lat="44.09315" lon="2.9573">
        <ele>563</ele>
        <time>2012-05-02T08:58:39Z</time>
      </trkpt>
      <trkpt lat="44.09324" lon="2.9573">
        <ele>564.8</ele>
        <time>2012-05-02T08:58:46Z</time>
      </trkpt>
      <trkpt lat="44.09332" lon="2.95729">
        <ele>567.8</ele>
        <time>2012-05-02T08:58:54Z</time>
      </trkpt>
      <trkpt lat="44.09339" lon="2.95725">
        <ele>568.9</ele>
        <time>2012-05-02T08:59:03Z</time>
      </trkpt>
      <trkpt lat="44.0934" lon="2.95724">
        <ele>569</ele>
        <time>2012-05-02T08:59:04Z</time>
      </trkpt>
      <trkpt lat="44.09356" lon="2.95718">
        <ele>570.4</ele>
        <time>2012-05-02T08:59:57Z</time>
      </trkpt>
      <trkpt lat="44.09363" lon="2.95711">
        <ele>580.6</ele>
        <time>2012-05-02T09:05:58Z</time>
      </trkpt>
      <trkpt lat="44.09364" lon="2.95711">
        <ele>581.1</ele>
        <time>2012-05-02T09:05:59Z</time>
      </trkpt>
      <trkpt lat="44.09376" lon="2.95697">
        <ele>585.7</ele>
        <time>2012-05-02T09:06:23Z</time>
      </trkpt>
      <trkpt lat="44.09383" lon="2.95689">
        <ele>590.6</ele>
        <time>2012-05-02T09:07:46Z</time>
      </trkpt>
      <trkpt lat="44.09383" lon="2.95688">
        <ele>590.5</ele>
        <time>2012-05-02T09:07:47Z</time>
      </trkpt>
      <trkpt lat="44.09396" lon="2.95674">
        <ele>593.4</ele>
        <time>2012-05-02T09:08:06Z</time>
      </trkpt>
      <trkpt lat="44.09398" lon="2.95662">
        <ele>594.7</ele>
        <time>2012-05-02T09:08:16Z</time>
      </trkpt>
      <trkpt lat="44.094" lon="2.95651">
        <ele>598.1</ele>
        <time>2012-05-02T09:08:25Z</time>
      </trkpt>
      <trkpt lat="44.09402" lon="2.95639">
        <ele>601.5</ele>
        <time>2012-05-02T09:08:34Z</time>
      </trkpt>
      <trkpt lat="44.09403" lon="2.95627">
        <ele>606.3</ele>
        <time>2012-05-02T09:08:43Z</time>
      </trkpt>
      <trkpt lat="44.09407" lon="2.95616">
        <ele>607.9</ele>
        <time>2012-05-02T09:08:51Z</time>
      </trkpt>
      <trkpt lat="44.09407" lon="2.95615">
        <ele>607.8</ele>
        <time>2012-05-02T09:08:52Z</time>
      </trkpt>
      <trkpt lat="44.09416" lon="2.95597">
        <ele>612.4</ele>
        <time>2012-05-02T09:09:09Z</time>
      </trkpt>
      <trkpt lat="44.0942" lon="2.95585">
        <ele>614.8</ele>
        <time>2012-05-02T09:09:18Z</time>
      </trkpt>
      <trkpt lat="44.09422" lon="2.95574">
        <ele>615.2</ele>
        <time>2012-05-02T09:09:26Z</time>
      </trkpt>
      <trkpt lat="44.09426" lon="2.95576">
        <ele>614.1</ele>
        <time>2012-05-02T09:10:35Z</time>
      </trkpt>
      <trkpt lat="44.09426" lon="2.95576">
        <ele>614.1</ele>
        <time>2012-05-02T09:10:35Z</time>
      </trkpt>
      <trkpt lat="44.09428" lon="2.95564">
        <ele>617</ele>
        <time>2012-05-02T09:15:59Z</time>
      </trkpt>
      <trkpt lat="44.09428" lon="2.95563">
        <ele>617.1</ele>
        <time>2012-05-02T09:16:00Z</time>
      </trkpt>
      <trkpt lat="44.09437" lon="2.95544">
        <ele>619.3</ele>
        <time>2012-05-02T09:16:21Z</time>
      </trkpt>
      <trkpt lat="44.09442" lon="2.95533">
        <ele>622.3</ele>
        <time>2012-05-02T09:16:32Z</time>
      </trkpt>
      <trkpt lat="44.09443" lon="2.95521">
        <ele>623.5</ele>
        <time>2012-05-02T09:16:42Z</time>
      </trkpt>
      <trkpt lat="44.09444" lon="2.95509">
        <ele>624.7</ele>
        <time>2012-05-02T09:16:51Z</time>
      </trkpt>
      <trkpt lat="44.09444" lon="2.95497">
        <ele>624.4</ele>
        <time>2012-05-02T09:16:59Z</time>
      </trkpt>
      <trkpt lat="44.09447" lon="2.95486">
        <ele>624.2</ele>
        <time>2012-05-02T09:17:07Z</time>
      </trkpt>
      <trkpt lat="44.09448" lon="2.95485">
        <ele>624</ele>
        <time>2012-05-02T09:17:08Z</time>
      </trkpt>
      <trkpt lat="44.09463" lon="2.95474">
        <ele>626.7</ele>
        <time>2012-05-02T09:17:25Z</time>
      </trkpt>
      <trkpt lat="44.0947" lon="2.95469">
        <ele>628</ele>
        <time>2012-05-02T09:17:32Z</time>
      </trkpt>
      <trkpt lat="44.09477" lon="2.95463">
        <ele>629.3</ele>
        <time>2012-05-02T09:17:40Z</time>
      </trkpt>
      <trkpt lat="44.09486" lon="2.9546">
        <ele>630.5</ele>
        <time>2012-05-02T09:17:53Z</time>
      </trkpt>
      <trkpt lat="44.09494" lon="2.95461">
        <ele>629.9</ele>
        <time>2012-05-02T09:18:32Z</time>
      </trkpt>
      <trkpt lat="44.09495" lon="2.95462">
        <ele>630.2</ele>
        <time>2012-05-02T09:18:33Z</time>
      </trkpt>
      <trkpt lat="44.09501" lon="2.95453">
        <ele>625.3</ele>
        <time>2012-05-02T09:20:15Z</time>
      </trkpt>
      <trkpt lat="44.09517" lon="2.95449">
        <ele>629.8</ele>
        <time>2012-05-02T09:20:45Z</time>
      </trkpt>
      <trkpt lat="44.09525" lon="2.95449">
        <ele>631.3</ele>
        <time>2012-05-02T09:20:54Z</time>
      </trkpt>
      <trkpt lat="44.09533" lon="2.95452">
        <ele>632.4</ele>
        <time>2012-05-02T09:21:03Z</time>
      </trkpt>
      <trkpt lat="44.09542" lon="2.95454">
        <ele>633.9</ele>
        <time>2012-05-02T09:21:10Z</time>
      </trkpt>
      <trkpt lat="44.09549" lon="2.95455">
        <ele>634</ele>
        <time>2012-05-02T09:21:16Z</time>
      </trkpt>
      <trkpt lat="44.09551" lon="2.95455">
        <ele>634.4</ele>
        <time>2012-05-02T09:21:17Z</time>
      </trkpt>
      <trkpt lat="44.09565" lon="2.95456">
        <ele>635.1</ele>
        <time>2012-05-02T09:21:29Z</time>
      </trkpt>
      <trkpt lat="44.09574" lon="2.95459">
        <ele>636.3</ele>
        <time>2012-05-02T09:21:37Z</time>
      </trkpt>
      <trkpt lat="44.0958" lon="2.95468">
        <ele>637.2</ele>
        <time>2012-05-02T09:21:47Z</time>
      </trkpt>
      <trkpt lat="44.09585" lon="2.95478">
        <ele>636.7</ele>
        <time>2012-05-02T09:21:55Z</time>
      </trkpt>
      <trkpt lat="44.09584" lon="2.9549">
        <ele>637.8</ele>
        <time>2012-05-02T09:22:04Z</time>
      </trkpt>
      <trkpt lat="44.09588" lon="2.95501">
        <ele>637.2</ele>
        <time>2012-05-02T09:22:12Z</time>
      </trkpt>
      <trkpt lat="44.09593" lon="2.95511">
        <ele>637</ele>
        <time>2012-05-02T09:22:20Z</time>
      </trkpt>
      <trkpt lat="44.09594" lon="2.95512">
        <ele>637.7</ele>
        <time>2012-05-02T09:22:21Z</time>
      </trkpt>
      <trkpt lat="44.09609" lon="2.95519">
        <ele>638.9</ele>
        <time>2012-05-02T09:22:39Z</time>
      </trkpt>
      <trkpt lat="44.09617" lon="2.95523">
        <ele>636.4</ele>
        <time>2012-05-02T09:23:01Z</time>
      </trkpt>
      <trkpt lat="44.09624" lon="2.95529">
        <ele>636.7</ele>
        <time>2012-05-02T09:23:08Z</time>
      </trkpt>
      <trkpt lat="44.0963" lon="2.95536">
        <ele>635.3</ele>
        <time>2012-05-02T09:23:16Z</time>
      </trkpt>
      <trkpt lat="44.09635" lon="2.95546">
        <ele>636.6</ele>
        <time>2012-05-02T09:23:24Z</time>
      </trkpt>
      <trkpt lat="44.09636" lon="2.95547">
        <ele>636.4</ele>
        <time>2012-05-02T09:23:25Z</time>
      </trkpt>
      <trkpt lat="44.09648" lon="2.95563">
        <ele>635.4</ele>
        <time>2012-05-02T09:24:11Z</time>
      </trkpt>
      <trkpt lat="44.09657" lon="2.95567">
        <ele>634.3</ele>
        <time>2012-05-02T09:24:18Z</time>
      </trkpt>
      <trkpt lat="44.09665" lon="2.95568">
        <ele>634.7</ele>
        <time>2012-05-02T09:24:24Z</time>
      </trkpt>
      <trkpt lat="44.09673" lon="2.95568">
        <ele>635.6</ele>
        <time>2012-05-02T09:24:31Z</time>
      </trkpt>
      <trkpt lat="44.09674" lon="2.95569">
        <ele>636</ele>
        <time>2012-05-02T09:24:32Z</time>
      </trkpt>
      <trkpt lat="44.09689" lon="2.95563">
        <ele>637.2</ele>
        <time>2012-05-02T09:25:07Z</time>
      </trkpt>
      <trkpt lat="44.09697" lon="2.95562">
        <ele>635.6</ele>
        <time>2012-05-02T09:25:37Z</time>
      </trkpt>
      <trkpt lat="44.09698" lon="2.95563">
        <ele>635.9</ele>
        <time>2012-05-02T09:25:38Z</time>
      </trkpt>
      <trkpt lat="44.09713" lon="2.95571">
        <ele>637.4</ele>
        <time>2012-05-02T09:25:54Z</time>
      </trkpt>
      <trkpt lat="44.09722" lon="2.95574">
        <ele>637.9</ele>
        <time>2012-05-02T09:26:01Z</time>
      </trkpt>
      <trkpt lat="44.0973" lon="2.95576">
        <ele>639.7</ele>
        <time>2012-05-02T09:26:08Z</time>
      </trkpt>
      <trkpt lat="44.09739" lon="2.95575">
        <ele>638.4</ele>
        <time>2012-05-02T09:26:16Z</time>
      </trkpt>
      <trkpt lat="44.09748" lon="2.95573">
        <ele>639.2</ele>
        <time>2012-05-02T09:26:24Z</time>
      </trkpt>
      <trkpt lat="44.09756" lon="2.95575">
        <ele>638.6</ele>
        <time>2012-05-02T09:26:32Z</time>
      </trkpt>
      <trkpt lat="44.09764" lon="2.95578">
        <ele>639.8</ele>
        <time>2012-05-02T09:26:40Z</time>
      </trkpt>
      <trkpt lat="44.09765" lon="2.95578">
        <ele>640</ele>
        <time>2012-05-02T09:26:41Z</time>
      </trkpt>
      <trkpt lat="44.09781" lon="2.95579">
        <ele>639.9</ele>
        <time>2012-05-02T09:27:00Z</time>
      </trkpt>
      <trkpt lat="44.09789" lon="2.95586">
        <ele>641.3</ele>
        <time>2012-05-02T09:27:54Z</time>
      </trkpt>
      <trkpt lat="44.0979" lon="2.95586">
        <ele>641.5</ele>
        <time>2012-05-02T09:27:55Z</time>
      </trkpt>
      <trkpt lat="44.09806" lon="2.95587">
        <ele>640.7</ele>
        <time>2012-05-02T09:28:18Z</time>
      </trkpt>
      <trkpt lat="44.09814" lon="2.95588">
        <ele>640.5</ele>
        <time>2012-05-02T09:28:45Z</time>
      </trkpt>
      <trkpt lat="44.09822" lon="2.95584">
        <ele>642.6</ele>
        <time>2012-05-02T09:28:55Z</time>
      </trkpt>
      <trkpt lat="44.09831" lon="2.95585">
        <ele>643.1</ele>
        <time>2012-05-02T09:29:03Z</time>
      </trkpt>
      <trkpt lat="44.09832" lon="2.95586">
        <ele>642.6</ele>
        <time>2012-05-02T09:29:04Z</time>
      </trkpt>
      <trkpt lat="44.09848" lon="2.95589">
        <ele>644</ele>
        <time>2012-05-02T09:29:18Z</time>
      </trkpt>
      <trkpt lat="44.09856" lon="2.95588">
        <ele>644.6</ele>
        <time>2012-05-02T09:30:02Z</time>
      </trkpt>
      <trkpt lat="44.09862" lon="2.95579">
        <ele>644.8</ele>
        <time>2012-05-02T09:30:11Z</time>
      </trkpt>
      <trkpt lat="44.09863" lon="2.95578">
        <ele>644.7</ele>
        <time>2012-05-02T09:30:12Z</time>
      </trkpt>
      <trkpt lat="44.09879" lon="2.9557">
        <ele>641.4</ele>
        <time>2012-05-02T09:30:53Z</time>
      </trkpt>
      <trkpt lat="44.09887" lon="2.95566">
        <ele>641.6</ele>
        <time>2012-05-02T09:31:01Z</time>
      </trkpt>
      <trkpt lat="44.09895" lon="2.95564">
        <ele>640.4</ele>
        <time>2012-05-02T09:31:10Z</time>
      </trkpt>
      <trkpt lat="44.09903" lon="2.95565">
        <ele>640</ele>
        <time>2012-05-02T09:31:18Z</time>
      </trkpt>
      <trkpt lat="44.09904" lon="2.95566">
        <ele>639.5</ele>
        <time>2012-05-02T09:31:19Z</time>
      </trkpt>
      <trkpt lat="44.0992" lon="2.95572">
        <ele>641.6</ele>
        <time>2012-05-02T09:31:37Z</time>
      </trkpt>
      <trkpt lat="44.09927" lon="2.95577">
        <ele>641.9</ele>
        <time>2012-05-02T09:31:45Z</time>
      </trkpt>
      <trkpt lat="44.09935" lon="2.95581">
        <ele>641.9</ele>
        <time>2012-05-02T09:31:52Z</time>
      </trkpt>
      <trkpt lat="44.09943" lon="2.95586">
        <ele>642.7</ele>
        <time>2012-05-02T09:32:02Z</time>
      </trkpt>
      <trkpt lat="44.09948" lon="2.95595">
        <ele>642.9</ele>
        <time>2012-05-02T09:32:51Z</time>
      </trkpt>
      <trkpt lat="44.09949" lon="2.95596">
        <ele>643.1</ele>
        <time>2012-05-02T09:32:52Z</time>
      </trkpt>
      <trkpt lat="44.0996" lon="2.95611">
        <ele>645.4</ele>
        <time>2012-05-02T09:33:09Z</time>
      </trkpt>
      <trkpt lat="44.09967" lon="2.95619">
        <ele>645.4</ele>
        <time>2012-05-02T09:33:18Z</time>
      </trkpt>
      <trkpt lat="44.0997" lon="2.9563">
        <ele>647.6</ele>
        <time>2012-05-02T09:34:21Z</time>
      </trkpt>
      <trkpt lat="44.0997" lon="2.9563">
        <ele>647.7</ele>
        <time>2012-05-02T09:34:22Z</time>
      </trkpt>
      <trkpt lat="44.0998" lon="2.95649">
        <ele>649.2</ele>
        <time>2012-05-02T09:34:40Z</time>
      </trkpt>
      <trkpt lat="44.09985" lon="2.95658">
        <ele>648.7</ele>
        <time>2012-05-02T09:34:48Z</time>
      </trkpt>
      <trkpt lat="44.09989" lon="2.95667">
        <ele>649.6</ele>
        <time>2012-05-02T09:34:55Z</time>
      </trkpt>
      <trkpt lat="44.09995" lon="2.95676">
        <ele>648.8</ele>
        <time>2012-05-02T09:35:02Z</time>
      </trkpt>
      <trkpt lat="44.10001" lon="2.95685">
        <ele>642.7</ele>
        <time>2012-05-02T09:35:21Z</time>
      </trkpt>
      <trkpt lat="44.10008" lon="2.95691">
        <ele>654.8</ele>
        <time>2012-05-02T09:35:37Z</time>
      </trkpt>
      <trkpt lat="44.10009" lon="2.95692">
        <ele>654.1</ele>
        <time>2012-05-02T09:35:38Z</time>
      </trkpt>
      <trkpt lat="44.10025" lon="2.95697">
        <ele>651.1</ele>
        <time>2012-05-02T09:35:51Z</time>
      </trkpt>
      <trkpt lat="44.10033" lon="2.95699">
        <ele>649</ele>
        <time>2012-05-02T09:35:58Z</time>
      </trkpt>
      <trkpt lat="44.10042" lon="2.95702">
        <ele>648.3</ele>
        <time>2012-05-02T09:36:05Z</time>
      </trkpt>
      <trkpt lat="44.1005" lon="2.95706">
        <ele>648.6</ele>
        <time>2012-05-02T09:36:12Z</time>
      </trkpt>
      <trkpt lat="44.10058" lon="2.95712">
        <ele>649.2</ele>
        <time>2012-05-02T09:36:19Z</time>
      </trkpt>
      <trkpt lat="44.10066" lon="2.95716">
        <ele>648.4</ele>
        <time>2012-05-02T09:36:26Z</time>
      </trkpt>
      <trkpt lat="44.10074" lon="2.95718">
        <ele>647.4</ele>
        <time>2012-05-02T09:36:32Z</time>
      </trkpt>
      <trkpt lat="44.10082" lon="2.95721">
        <ele>648.6</ele>
        <time>2012-05-02T09:36:39Z</time>
      </trkpt>
      <trkpt lat="44.10083" lon="2.95721">
        <ele>648.7</ele>
        <time>2012-05-02T09:36:40Z</time>
      </trkpt>
      <trkpt lat="44.10099" lon="2.95726">
        <ele>653.3</ele>
        <time>2012-05-02T09:37:38Z</time>
      </trkpt>
      <trkpt lat="44.10107" lon="2.95729">
        <ele>650.6</ele>
        <time>2012-05-02T09:37:44Z</time>
      </trkpt>
      <trkpt lat="44.10108" lon="2.95729">
        <ele>650</ele>
        <time>2012-05-02T09:37:45Z</time>
      </trkpt>
      <trkpt lat="44.10123" lon="2.95736">
        <ele>648.1</ele>
        <time>2012-05-02T09:37:57Z</time>
      </trkpt>
      <trkpt lat="44.10131" lon="2.95737">
        <ele>646.8</ele>
        <time>2012-05-02T09:38:05Z</time>
      </trkpt>
      <trkpt lat="44.10139" lon="2.95736">
        <ele>648.3</ele>
        <time>2012-05-02T09:38:44Z</time>
      </trkpt>
      <trkpt lat="44.10147" lon="2.95731">
        <ele>648</ele>
        <time>2012-05-02T09:38:53Z</time>
      </trkpt>
      <trkpt lat="44.10147" lon="2.95731">
        <ele>648.2</ele>
        <time>2012-05-02T09:38:54Z</time>
      </trkpt>
      <trkpt lat="44.10163" lon="2.95722">
        <ele>650.8</ele>
        <time>2012-05-02T09:40:09Z</time>
      </trkpt>
      <trkpt lat="44.10164" lon="2.95721">
        <ele>650.5</ele>
        <time>2012-05-02T09:40:10Z</time>
      </trkpt>
      <trkpt lat="44.1018" lon="2.95723">
        <ele>652.6</ele>
        <time>2012-05-02T09:40:27Z</time>
      </trkpt>
      <trkpt lat="44.10187" lon="2.95727">
        <ele>654.6</ele>
        <time>2012-05-02T09:40:35Z</time>
      </trkpt>
      <trkpt lat="44.10195" lon="2.9573">
        <ele>654.6</ele>
        <time>2012-05-02T09:40:43Z</time>
      </trkpt>
      <trkpt lat="44.10203" lon="2.95733">
        <ele>657.6</ele>
        <time>2012-05-02T09:40:50Z</time>
      </trkpt>
      <trkpt lat="44.10211" lon="2.95737">
        <ele>660</ele>
        <time>2012-05-02T09:40:57Z</time>
      </trkpt>
      <trkpt lat="44.10219" lon="2.95742">
        <ele>660</ele>
        <time>2012-05-02T09:41:06Z</time>
      </trkpt>
      <trkpt lat="44.10226" lon="2.95748">
        <ele>662.2</ele>
        <time>2012-05-02T09:41:20Z</time>
      </trkpt>
      <trkpt lat="44.10226" lon="2.95749">
        <ele>662.4</ele>
        <time>2012-05-02T09:41:21Z</time>
      </trkpt>
      <trkpt lat="44.10236" lon="2.95765">
        <ele>665.1</ele>
        <time>2012-05-02T09:41:38Z</time>
      </trkpt>
      <trkpt lat="44.10241" lon="2.95774">
        <ele>665.9</ele>
        <time>2012-05-02T09:41:46Z</time>
      </trkpt>
      <trkpt lat="44.10245" lon="2.95785">
        <ele>667.6</ele>
        <time>2012-05-02T09:41:55Z</time>
      </trkpt>
      <trkpt lat="44.1025" lon="2.95794">
        <ele>666.5</ele>
        <time>2012-05-02T09:42:02Z</time>
      </trkpt>
      <trkpt lat="44.10252" lon="2.95805">
        <ele>667.1</ele>
        <time>2012-05-02T09:42:10Z</time>
      </trkpt>
      <trkpt lat="44.10254" lon="2.95817">
        <ele>666.9</ele>
        <time>2012-05-02T09:42:17Z</time>
      </trkpt>
      <trkpt lat="44.10257" lon="2.95828">
        <ele>665.9</ele>
        <time>2012-05-02T09:42:26Z</time>
      </trkpt>
      <trkpt lat="44.10257" lon="2.95829">
        <ele>665.9</ele>
        <time>2012-05-02T09:42:27Z</time>
      </trkpt>
      <trkpt lat="44.1026" lon="2.9585">
        <ele>664.4</ele>
        <time>2012-05-02T09:42:40Z</time>
      </trkpt>
      <trkpt lat="44.10265" lon="2.95859">
        <ele>663.5</ele>
        <time>2012-05-02T09:42:47Z</time>
      </trkpt>
      <trkpt lat="44.10266" lon="2.95871">
        <ele>660.1</ele>
        <time>2012-05-02T09:43:20Z</time>
      </trkpt>
      <trkpt lat="44.10268" lon="2.95883">
        <ele>662.6</ele>
        <time>2012-05-02T09:43:52Z</time>
      </trkpt>
      <trkpt lat="44.1027" lon="2.95884">
        <ele>662.1</ele>
        <time>2012-05-02T09:43:53Z</time>
      </trkpt>
      <trkpt lat="44.10283" lon="2.95892">
        <ele>660.6</ele>
        <time>2012-05-02T09:44:04Z</time>
      </trkpt>
      <trkpt lat="44.1029" lon="2.95899">
        <ele>660.6</ele>
        <time>2012-05-02T09:44:11Z</time>
      </trkpt>
      <trkpt lat="44.10297" lon="2.95905">
        <ele>659.9</ele>
        <time>2012-05-02T09:44:18Z</time>
      </trkpt>
      <trkpt lat="44.10304" lon="2.95913">
        <ele>660.7</ele>
        <time>2012-05-02T09:44:26Z</time>
      </trkpt>
      <trkpt lat="44.10311" lon="2.9592">
        <ele>660.7</ele>
        <time>2012-05-02T09:44:34Z</time>
      </trkpt>
      <trkpt lat="44.10317" lon="2.95929">
        <ele>660.1</ele>
        <time>2012-05-02T09:44:42Z</time>
      </trkpt>
      <trkpt lat="44.10322" lon="2.95937">
        <ele>659.6</ele>
        <time>2012-05-02T09:44:49Z</time>
      </trkpt>
      <trkpt lat="44.10328" lon="2.95945">
        <ele>659.7</ele>
        <time>2012-05-02T09:44:55Z</time>
      </trkpt>
      <trkpt lat="44.10329" lon="2.95946">
        <ele>659.6</ele>
        <time>2012-05-02T09:44:56Z</time>
      </trkpt>
      <trkpt lat="44.1034" lon="2.95961">
        <ele>659.8</ele>
        <time>2012-05-02T09:45:09Z</time>
      </trkpt>
      <trkpt lat="44.10346" lon="2.95969">
        <ele>659.6</ele>
        <time>2012-05-02T09:45:16Z</time>
      </trkpt>
      <trkpt lat="44.10351" lon="2.95976">
        <ele>660.1</ele>
        <time>2012-05-02T09:45:23Z</time>
      </trkpt>
      <trkpt lat="44.10356" lon="2.95986">
        <ele>660.8</ele>
        <time>2012-05-02T09:45:30Z</time>
      </trkpt>
      <trkpt lat="44.10361" lon="2.95995">
        <ele>661.1</ele>
        <time>2012-05-02T09:45:37Z</time>
      </trkpt>
      <trkpt lat="44.10367" lon="2.96004">
        <ele>659.3</ele>
        <time>2012-05-02T09:45:44Z</time>
      </trkpt>
      <trkpt lat="44.10371" lon="2.96014">
        <ele>659.5</ele>
        <time>2012-05-02T09:45:51Z</time>
      </trkpt>
      <trkpt lat="44.10375" lon="2.96024">
        <ele>659.3</ele>
        <time>2012-05-02T09:45:57Z</time>
      </trkpt>
      <trkpt lat="44.10376" lon="2.96026">
        <ele>659.6</ele>
        <time>2012-05-02T09:45:58Z</time>
      </trkpt>
      <trkpt lat="44.10385" lon="2.96043">
        <ele>659.4</ele>
        <time>2012-05-02T09:46:09Z</time>
      </trkpt>
      <trkpt lat="44.1039" lon="2.96053">
        <ele>658.8</ele>
        <time>2012-05-02T09:46:15Z</time>
      </trkpt>
      <trkpt lat="44.10393" lon="2.96064">
        <ele>659.2</ele>
        <time>2012-05-02T09:46:21Z</time>
      </trkpt>
      <trkpt lat="44.10394" lon="2.96075">
        <ele>659.9</ele>
        <time>2012-05-02T09:46:27Z</time>
      </trkpt>
      <trkpt lat="44.10395" lon="2.96087">
        <ele>660.3</ele>
        <time>2012-05-02T09:46:34Z</time>
      </trkpt>
      <trkpt lat="44.10392" lon="2.96097">
        <ele>659.9</ele>
        <time>2012-05-02T09:46:42Z</time>
      </trkpt>
      <trkpt lat="44.10389" lon="2.96108">
        <ele>659.7</ele>
        <time>2012-05-02T09:46:48Z</time>
      </trkpt>
      <trkpt lat="44.10386" lon="2.96119">
        <ele>660</ele>
        <time>2012-05-02T09:46:55Z</time>
      </trkpt>
      <trkpt lat="44.10383" lon="2.96131">
        <ele>660.9</ele>
        <time>2012-05-02T09:47:02Z</time>
      </trkpt>
      <trkpt lat="44.10383" lon="2.96132">
        <ele>660.7</ele>
        <time>2012-05-02T09:47:03Z</time>
      </trkpt>
      <trkpt lat="44.1038" lon="2.96154">
        <ele>663.4</ele>
        <time>2012-05-02T09:47:23Z</time>
      </trkpt>
      <trkpt lat="44.10372" lon="2.96157">
        <ele>663</ele>
        <time>2012-05-02T09:47:31Z</time>
      </trkpt>
      <trkpt lat="44.10363" lon="2.96154">
        <ele>662.4</ele>
        <time>2012-05-02T09:47:40Z</time>
      </trkpt>
      <trkpt lat="44.10355" lon="2.96154">
        <ele>661.3</ele>
        <time>2012-05-02T09:47:48Z</time>
      </trkpt>
      <trkpt lat="44.10347" lon="2.96156">
        <ele>660.4</ele>
        <time>2012-05-02T09:47:55Z</time>
      </trkpt>
      <trkpt lat="44.10338" lon="2.96157">
        <ele>659.1</ele>
        <time>2012-05-02T09:48:02Z</time>
      </trkpt>
      <trkpt lat="44.10329" lon="2.96158">
        <ele>657.1</ele>
        <time>2012-05-02T09:48:10Z</time>
      </trkpt>
      <trkpt lat="44.10329" lon="2.96158">
        <ele>657.2</ele>
        <time>2012-05-02T09:48:11Z</time>
      </trkpt>
      <trkpt lat="44.10314" lon="2.96159">
        <ele>655.8</ele>
        <time>2012-05-02T09:48:23Z</time>
      </trkpt>
      <trkpt lat="44.10306" lon="2.96159">
        <ele>654.9</ele>
        <time>2012-05-02T09:48:29Z</time>
      </trkpt>
      <trkpt lat="44.10298" lon="2.96159">
        <ele>653.6</ele>
        <time>2012-05-02T09:48:35Z</time>
      </trkpt>
      <trkpt lat="44.1029" lon="2.9616">
        <ele>652.4</ele>
        <time>2012-05-02T09:48:41Z</time>
      </trkpt>
      <trkpt lat="44.10282" lon="2.96161">
        <ele>652</ele>
        <time>2012-05-02T09:48:47Z</time>
      </trkpt>
      <trkpt lat="44.10273" lon="2.96162">
        <ele>650.8</ele>
        <time>2012-05-02T09:48:53Z</time>
      </trkpt>
      <trkpt lat="44.10265" lon="2.96164">
        <ele>649.6</ele>
        <time>2012-05-02T09:49:00Z</time>
      </trkpt>
      <trkpt lat="44.10256" lon="2.96166">
        <ele>649.5</ele>
        <time>2012-05-02T09:49:06Z</time>
      </trkpt>
      <trkpt lat="44.10248" lon="2.9617">
        <ele>647.1</ele>
        <time>2012-05-02T09:49:32Z</time>
      </trkpt>
      <trkpt lat="44.10247" lon="2.9617">
        <ele>646.9</ele>
        <time>2012-05-02T09:49:33Z</time>
      </trkpt>
      <trkpt lat="44.10232" lon="2.96176">
        <ele>645.7</ele>
        <time>2012-05-02T09:49:50Z</time>
      </trkpt>
      <trkpt lat="44.10224" lon="2.96179">
        <ele>642.5</ele>
        <time>2012-05-02T09:49:58Z</time>
      </trkpt>
      <trkpt lat="44.10215" lon="2.96184">
        <ele>641.3</ele>
        <time>2012-05-02T09:50:49Z</time>
      </trkpt>
      <trkpt lat="44.10215" lon="2.96185">
        <ele>641.2</ele>
        <time>2012-05-02T09:50:50Z</time>
      </trkpt>
      <trkpt lat="44.102" lon="2.96195">
        <ele>638.5</ele>
        <time>2012-05-02T09:51:05Z</time>
      </trkpt>
      <trkpt lat="44.10192" lon="2.96201">
        <ele>637.6</ele>
        <time>2012-05-02T09:51:13Z</time>
      </trkpt>
      <trkpt lat="44.10184" lon="2.96206">
        <ele>638.7</ele>
        <time>2012-05-02T09:51:21Z</time>
      </trkpt>
      <trkpt lat="44.10176" lon="2.9621">
        <ele>639.5</ele>
        <time>2012-05-02T09:51:29Z</time>
      </trkpt>
      <trkpt lat="44.10168" lon="2.96213">
        <ele>638.9</ele>
        <time>2012-05-02T09:51:37Z</time>
      </trkpt>
      <trkpt lat="44.1016" lon="2.96217">
        <ele>635</ele>
        <time>2012-05-02T09:53:50Z</time>
      </trkpt>
      <trkpt lat="44.10159" lon="2.96217">
        <ele>635</ele>
        <time>2012-05-02T09:53:51Z</time>
      </trkpt>
      <trkpt lat="44.10169" lon="2.96198">
        <ele>637.4</ele>
        <time>2012-05-02T09:54:20Z</time>
      </trkpt>
      <trkpt lat="44.10176" lon="2.96194">
        <ele>636.6</ele>
        <time>2012-05-02T09:54:27Z</time>
      </trkpt>
      <trkpt lat="44.10182" lon="2.96185">
        <ele>637.1</ele>
        <time>2012-05-02T09:54:33Z</time>
      </trkpt>
      <trkpt lat="44.10188" lon="2.96177">
        <ele>636.9</ele>
        <time>2012-05-02T09:54:39Z</time>
      </trkpt>
      <trkpt lat="44.10193" lon="2.96168">
        <ele>636</ele>
        <time>2012-05-02T09:54:45Z</time>
      </trkpt>
      <trkpt lat="44.10198" lon="2.96159">
        <ele>637</ele>
        <time>2012-05-02T09:54:51Z</time>
      </trkpt>
      <trkpt lat="44.10199" lon="2.96158">
        <ele>637.2</ele>
        <time>2012-05-02T09:54:52Z</time>
      </trkpt>
      <trkpt lat="44.10207" lon="2.96139">
        <ele>635.4</ele>
        <time>2012-05-02T09:55:05Z</time>
      </trkpt>
      <trkpt lat="44.10209" lon="2.96127">
        <ele>634.7</ele>
        <time>2012-05-02T09:55:21Z</time>
      </trkpt>
      <trkpt lat="44.10217" lon="2.96122">
        <ele>631.8</ele>
        <time>2012-05-02T09:56:23Z</time>
      </trkpt>
      <trkpt lat="44.10217" lon="2.96121">
        <ele>632.2</ele>
        <time>2012-05-02T09:56:24Z</time>
      </trkpt>
      <trkpt lat="44.10205" lon="2.96114">
        <ele>629.7</ele>
        <time>2012-05-02T09:56:45Z</time>
      </trkpt>
      <trkpt lat="44.10197" lon="2.96117">
        <ele>628.4</ele>
        <time>2012-05-02T09:56:50Z</time>
      </trkpt>
      <trkpt lat="44.10188" lon="2.96119">
        <ele>628</ele>
        <time>2012-05-02T09:56:56Z</time>
      </trkpt>
      <trkpt lat="44.10181" lon="2.96124">
        <ele>628.3</ele>
        <time>2012-05-02T09:57:01Z</time>
      </trkpt>
      <trkpt lat="44.10174" lon="2.96128">
        <ele>628.1</ele>
        <time>2012-05-02T09:57:06Z</time>
      </trkpt>
      <trkpt lat="44.10166" lon="2.96129">
        <ele>627.6</ele>
        <time>2012-05-02T09:57:13Z</time>
      </trkpt>
      <trkpt lat="44.10157" lon="2.96125">
        <ele>628.2</ele>
        <time>2012-05-02T09:57:20Z</time>
      </trkpt>
      <trkpt lat="44.10149" lon="2.9612">
        <ele>628.4</ele>
        <time>2012-05-02T09:57:28Z</time>
      </trkpt>
      <trkpt lat="44.10148" lon="2.9612">
        <ele>628.5</ele>
        <time>2012-05-02T09:57:29Z</time>
      </trkpt>
      <trkpt lat="44.10133" lon="2.96111">
        <ele>626.6</ele>
        <time>2012-05-02T09:57:41Z</time>
      </trkpt>
      <trkpt lat="44.10126" lon="2.96109">
        <ele>626.9</ele>
        <time>2012-05-02T09:57:46Z</time>
      </trkpt>
      <trkpt lat="44.10118" lon="2.96108">
        <ele>625.5</ele>
        <time>2012-05-02T09:57:52Z</time>
      </trkpt>
      <trkpt lat="44.10111" lon="2.96107">
        <ele>624.6</ele>
        <time>2012-05-02T09:57:58Z</time>
      </trkpt>
      <trkpt lat="44.10103" lon="2.96105">
        <ele>622.6</ele>
        <time>2012-05-02T09:58:04Z</time>
      </trkpt>
      <trkpt lat="44.10095" lon="2.96105">
        <ele>622.1</ele>
        <time>2012-05-02T09:58:10Z</time>
      </trkpt>
      <trkpt lat="44.10088" lon="2.96104">
        <ele>621.6</ele>
        <time>2012-05-02T09:58:16Z</time>
      </trkpt>
      <trkpt lat="44.1008" lon="2.96104">
        <ele>621.2</ele>
        <time>2012-05-02T09:58:22Z</time>
      </trkpt>
      <trkpt lat="44.10072" lon="2.96103">
        <ele>619.7</ele>
        <time>2012-05-02T09:58:28Z</time>
      </trkpt>
      <trkpt lat="44.10063" lon="2.96105">
        <ele>619.3</ele>
        <time>2012-05-02T09:58:34Z</time>
      </trkpt>
      <trkpt lat="44.10062" lon="2.96104">
        <ele>619</ele>
        <time>2012-05-02T09:58:35Z</time>
      </trkpt>
      <trkpt lat="44.10047" lon="2.96106">
        <ele>616.7</ele>
        <time>2012-05-02T09:58:46Z</time>
      </trkpt>
      <trkpt lat="44.10039" lon="2.96107">
        <ele>617</ele>
        <time>2012-05-02T09:58:52Z</time>
      </trkpt>
      <trkpt lat="44.10031" lon="2.96109">
        <ele>616</ele>
        <time>2012-05-02T09:58:57Z</time>
      </trkpt>
      <trkpt lat="44.10023" lon="2.9611">
        <ele>615.1</ele>
        <time>2012-05-02T09:59:02Z</time>
      </trkpt>
      <trkpt lat="44.10014" lon="2.96111">
        <ele>613.5</ele>
        <time>2012-05-02T09:59:08Z</time>
      </trkpt>
      <trkpt lat="44.10006" lon="2.96112">
        <ele>612.9</ele>
        <time>2012-05-02T09:59:14Z</time>
      </trkpt>
      <trkpt lat="44.09998" lon="2.96113">
        <ele>612.2</ele>
        <time>2012-05-02T09:59:20Z</time>
      </trkpt>
      <trkpt lat="44.09991" lon="2.96112">
        <ele>611.7</ele>
        <time>2012-05-02T09:59:25Z</time>
      </trkpt>
      <trkpt lat="44.09983" lon="2.96111">
        <ele>609.1</ele>
        <time>2012-05-02T09:59:31Z</time>
      </trkpt>
      <trkpt lat="44.09974" lon="2.96112">
        <ele>608.6</ele>
        <time>2012-05-02T09:59:37Z</time>
      </trkpt>
      <trkpt lat="44.09973" lon="2.96112">
        <ele>608.7</ele>
        <time>2012-05-02T09:59:38Z</time>
      </trkpt>
      <trkpt lat="44.09958" lon="2.96112">
        <ele>607</ele>
        <time>2012-05-02T09:59:50Z</time>
      </trkpt>
      <trkpt lat="44.09949" lon="2.96112">
        <ele>605.4</ele>
        <time>2012-05-02T09:59:57Z</time>
      </trkpt>
      <trkpt lat="44.09941" lon="2.96112">
        <ele>603.2</ele>
        <time>2012-05-02T10:00:04Z</time>
      </trkpt>
      <trkpt lat="44.09933" lon="2.96114">
        <ele>600.6</ele>
        <time>2012-05-02T10:00:12Z</time>
      </trkpt>
      <trkpt lat="44.09924" lon="2.96115">
        <ele>600.3</ele>
        <time>2012-05-02T10:00:20Z</time>
      </trkpt>
      <trkpt lat="44.09916" lon="2.96116">
        <ele>599.9</ele>
        <time>2012-05-02T10:00:46Z</time>
      </trkpt>
      <trkpt lat="44.09914" lon="2.96116">
        <ele>599.5</ele>
        <time>2012-05-02T10:00:47Z</time>
      </trkpt>
      <trkpt lat="44.09899" lon="2.96119">
        <ele>597.4</ele>
        <time>2012-05-02T10:00:58Z</time>
      </trkpt>
      <trkpt lat="44.09892" lon="2.96121">
        <ele>596.8</ele>
        <time>2012-05-02T10:01:04Z</time>
      </trkpt>
      <trkpt lat="44.09884" lon="2.96123">
        <ele>597</ele>
        <time>2012-05-02T10:01:10Z</time>
      </trkpt>
      <trkpt lat="44.09875" lon="2.96125">
        <ele>595.8</ele>
        <time>2012-05-02T10:01:17Z</time>
      </trkpt>
      <trkpt lat="44.09867" lon="2.96127">
        <ele>595.4</ele>
        <time>2012-05-02T10:01:23Z</time>
      </trkpt>
      <trkpt lat="44.09859" lon="2.96129">
        <ele>595.5</ele>
        <time>2012-05-02T10:01:29Z</time>
      </trkpt>
      <trkpt lat="44.09851" lon="2.96131">
        <ele>595.1</ele>
        <time>2012-05-02T10:01:36Z</time>
      </trkpt>
      <trkpt lat="44.09842" lon="2.96133">
        <ele>594.9</ele>
        <time>2012-05-02T10:01:43Z</time>
      </trkpt>
      <trkpt lat="44.09834" lon="2.96136">
        <ele>594.1</ele>
        <time>2012-05-02T10:01:50Z</time>
      </trkpt>
      <trkpt lat="44.09833" lon="2.96137">
        <ele>594.1</ele>
        <time>2012-05-02T10:01:51Z</time>
      </trkpt>
      <trkpt lat="44.09817" lon="2.9614">
        <ele>592</ele>
        <time>2012-05-02T10:02:03Z</time>
      </trkpt>
      <trkpt lat="44.09808" lon="2.96142">
        <ele>590.1</ele>
        <time>2012-05-02T10:02:11Z</time>
      </trkpt>
      <trkpt lat="44.09801" lon="2.96144">
        <ele>589</ele>
        <time>2012-05-02T10:02:17Z</time>
      </trkpt>
      <trkpt lat="44.09793" lon="2.96145">
        <ele>589.1</ele>
        <time>2012-05-02T10:02:23Z</time>
      </trkpt>
      <trkpt lat="44.09785" lon="2.96148">
        <ele>588.1</ele>
        <time>2012-05-02T10:02:29Z</time>
      </trkpt>
      <trkpt lat="44.09777" lon="2.9615">
        <ele>587.6</ele>
        <time>2012-05-02T10:02:36Z</time>
      </trkpt>
      <trkpt lat="44.09768" lon="2.96152">
        <ele>587.6</ele>
        <time>2012-05-02T10:02:43Z</time>
      </trkpt>
      <trkpt lat="44.0976" lon="2.96153">
        <ele>587.2</ele>
        <time>2012-05-02T10:02:49Z</time>
      </trkpt>
      <trkpt lat="44.09752" lon="2.96155">
        <ele>585.6</ele>
        <time>2012-05-02T10:02:56Z</time>
      </trkpt>
      <trkpt lat="44.0975" lon="2.96155">
        <ele>585.5</ele>
        <time>2012-05-02T10:02:57Z</time>
      </trkpt>
      <trkpt lat="44.09735" lon="2.96157">
        <ele>582.7</ele>
        <time>2012-05-02T10:03:10Z</time>
      </trkpt>
      <trkpt lat="44.09727" lon="2.96161">
        <ele>581.8</ele>
        <time>2012-05-02T10:03:18Z</time>
      </trkpt>
      <trkpt lat="44.09721" lon="2.9617">
        <ele>576.2</ele>
        <time>2012-05-02T10:03:55Z</time>
      </trkpt>
      <trkpt lat="44.09714" lon="2.96175">
        <ele>574.9</ele>
        <time>2012-05-02T10:04:02Z</time>
      </trkpt>
      <trkpt lat="44.09713" lon="2.96175">
        <ele>574.7</ele>
        <time>2012-05-02T10:04:03Z</time>
      </trkpt>
      <trkpt lat="44.097" lon="2.96184">
        <ele>577.3</ele>
        <time>2012-05-02T10:04:14Z</time>
      </trkpt>
      <trkpt lat="44.09692" lon="2.96189">
        <ele>577.9</ele>
        <time>2012-05-02T10:04:20Z</time>
      </trkpt>
      <trkpt lat="44.09684" lon="2.96193">
        <ele>578.5</ele>
        <time>2012-05-02T10:04:27Z</time>
      </trkpt>
      <trkpt lat="44.09677" lon="2.96198">
        <ele>580.9</ele>
        <time>2012-05-02T10:04:33Z</time>
      </trkpt>
      <trkpt lat="44.0967" lon="2.96202">
        <ele>581.9</ele>
        <time>2012-05-02T10:04:38Z</time>
      </trkpt>
      <trkpt lat="44.09662" lon="2.96207">
        <ele>583.2</ele>
        <time>2012-05-02T10:04:44Z</time>
      </trkpt>
      <trkpt lat="44.09654" lon="2.96212">
        <ele>582.8</ele>
        <time>2012-05-02T10:04:50Z</time>
      </trkpt>
      <trkpt lat="44.09647" lon="2.96216">
        <ele>583.3</ele>
        <time>2012-05-02T10:04:55Z</time>
      </trkpt>
      <trkpt lat="44.0964" lon="2.96221">
        <ele>583.9</ele>
        <time>2012-05-02T10:05:00Z</time>
      </trkpt>
      <trkpt lat="44.09633" lon="2.96225">
        <ele>583.7</ele>
        <time>2012-05-02T10:05:05Z</time>
      </trkpt>
      <trkpt lat="44.09632" lon="2.96226">
        <ele>584.1</ele>
        <time>2012-05-02T10:05:06Z</time>
      </trkpt>
      <trkpt lat="44.09616" lon="2.96235">
        <ele>586.3</ele>
        <time>2012-05-02T10:05:18Z</time>
      </trkpt>
      <trkpt lat="44.09608" lon="2.96238">
        <ele>586.1</ele>
        <time>2012-05-02T10:05:25Z</time>
      </trkpt>
      <trkpt lat="44.096" lon="2.96241">
        <ele>585.2</ele>
        <time>2012-05-02T10:05:32Z</time>
      </trkpt>
      <trkpt lat="44.09591" lon="2.96244">
        <ele>585.6</ele>
        <time>2012-05-02T10:05:39Z</time>
      </trkpt>
      <trkpt lat="44.09584" lon="2.96248">
        <ele>584.5</ele>
        <time>2012-05-02T10:05:45Z</time>
      </trkpt>
      <trkpt lat="44.09576" lon="2.96253">
        <ele>584.1</ele>
        <time>2012-05-02T10:05:51Z</time>
      </trkpt>
      <trkpt lat="44.09569" lon="2.96258">
        <ele>584.8</ele>
        <time>2012-05-02T10:05:57Z</time>
      </trkpt>
      <trkpt lat="44.09562" lon="2.96265">
        <ele>583.6</ele>
        <time>2012-05-02T10:06:04Z</time>
      </trkpt>
      <trkpt lat="44.09556" lon="2.96271">
        <ele>583.5</ele>
        <time>2012-05-02T10:06:09Z</time>
      </trkpt>
      <trkpt lat="44.09555" lon="2.96272">
        <ele>583.7</ele>
        <time>2012-05-02T10:06:10Z</time>
      </trkpt>
      <trkpt lat="44.09542" lon="2.96284">
        <ele>584.4</ele>
        <time>2012-05-02T10:06:20Z</time>
      </trkpt>
      <trkpt lat="44.09535" lon="2.96291">
        <ele>584.1</ele>
        <time>2012-05-02T10:06:25Z</time>
      </trkpt>
      <trkpt lat="44.09529" lon="2.963">
        <ele>584.8</ele>
        <time>2012-05-02T10:06:32Z</time>
      </trkpt>
      <trkpt lat="44.09522" lon="2.96307">
        <ele>585.9</ele>
        <time>2012-05-02T10:06:38Z</time>
      </trkpt>
      <trkpt lat="44.09516" lon="2.96314">
        <ele>585.7</ele>
        <time>2012-05-02T10:06:44Z</time>
      </trkpt>
      <trkpt lat="44.09509" lon="2.96321">
        <ele>586.2</ele>
        <time>2012-05-02T10:06:50Z</time>
      </trkpt>
      <trkpt lat="44.09501" lon="2.96327">
        <ele>587.4</ele>
        <time>2012-05-02T10:06:56Z</time>
      </trkpt>
      <trkpt lat="44.09494" lon="2.96332">
        <ele>587.8</ele>
        <time>2012-05-02T10:07:01Z</time>
      </trkpt>
      <trkpt lat="44.09487" lon="2.96337">
        <ele>586.8</ele>
        <time>2012-05-02T10:07:07Z</time>
      </trkpt>
      <trkpt lat="44.0948" lon="2.96342">
        <ele>587.1</ele>
        <time>2012-05-02T10:07:13Z</time>
      </trkpt>
      <trkpt lat="44.09479" lon="2.96344">
        <ele>587.3</ele>
        <time>2012-05-02T10:07:14Z</time>
      </trkpt>
      <trkpt lat="44.09472" lon="2.96364">
        <ele>586.2</ele>
        <time>2012-05-02T10:09:01Z</time>
      </trkpt>
      <trkpt lat="44.09471" lon="2.96364">
        <ele>586.1</ele>
        <time>2012-05-02T10:09:02Z</time>
      </trkpt>
      <trkpt lat="44.09456" lon="2.96373">
        <ele>586.3</ele>
        <time>2012-05-02T10:09:16Z</time>
      </trkpt>
      <trkpt lat="44.09448" lon="2.96375">
        <ele>586.2</ele>
        <time>2012-05-02T10:09:23Z</time>
      </trkpt>
      <trkpt lat="44.09439" lon="2.96376">
        <ele>586.2</ele>
        <time>2012-05-02T10:09:30Z</time>
      </trkpt>
      <trkpt lat="44.09431" lon="2.96374">
        <ele>586.6</ele>
        <time>2012-05-02T10:09:36Z</time>
      </trkpt>
      <trkpt lat="44.09422" lon="2.96372">
        <ele>586.5</ele>
        <time>2012-05-02T10:09:43Z</time>
      </trkpt>
      <trkpt lat="44.09414" lon="2.9637">
        <ele>586.3</ele>
        <time>2012-05-02T10:09:49Z</time>
      </trkpt>
      <trkpt lat="44.09406" lon="2.96368">
        <ele>585.6</ele>
        <time>2012-05-02T10:09:56Z</time>
      </trkpt>
      <trkpt lat="44.09397" lon="2.96369">
        <ele>586.4</ele>
        <time>2012-05-02T10:10:02Z</time>
      </trkpt>
      <trkpt lat="44.09396" lon="2.96369">
        <ele>586</ele>
        <time>2012-05-02T10:10:03Z</time>
      </trkpt>
      <trkpt lat="44.09381" lon="2.96371">
        <ele>585.5</ele>
        <time>2012-05-02T10:10:14Z</time>
      </trkpt>
      <trkpt lat="44.09373" lon="2.9637">
        <ele>585.9</ele>
        <time>2012-05-02T10:10:21Z</time>
      </trkpt>
      <trkpt lat="44.09365" lon="2.96371">
        <ele>585.7</ele>
        <time>2012-05-02T10:10:27Z</time>
      </trkpt>
      <trkpt lat="44.09356" lon="2.96373">
        <ele>584.4</ele>
        <time>2012-05-02T10:10:33Z</time>
      </trkpt>
      <trkpt lat="44.09348" lon="2.96373">
        <ele>584.2</ele>
        <time>2012-05-02T10:10:39Z</time>
      </trkpt>
      <trkpt lat="44.0934" lon="2.96374">
        <ele>582.4</ele>
        <time>2012-05-02T10:10:45Z</time>
      </trkpt>
      <trkpt lat="44.09332" lon="2.96375">
        <ele>582.2</ele>
        <time>2012-05-02T10:10:51Z</time>
      </trkpt>
      <trkpt lat="44.09324" lon="2.96376">
        <ele>581.4</ele>
        <time>2012-05-02T10:10:57Z</time>
      </trkpt>
      <trkpt lat="44.09316" lon="2.96375">
        <ele>580.3</ele>
        <time>2012-05-02T10:11:04Z</time>
      </trkpt>
      <trkpt lat="44.09315" lon="2.96376">
        <ele>580.2</ele>
        <time>2012-05-02T10:11:05Z</time>
      </trkpt>
      <trkpt lat="44.09303" lon="2.96366">
        <ele>577.4</ele>
        <time>2012-05-02T10:11:22Z</time>
      </trkpt>
      <trkpt lat="44.09297" lon="2.96357">
        <ele>576.1</ele>
        <time>2012-05-02T10:11:34Z</time>
      </trkpt>
      <trkpt lat="44.09298" lon="2.96345">
        <ele>570.4</ele>
        <time>2012-05-02T10:12:38Z</time>
      </trkpt>
      <trkpt lat="44.09298" lon="2.96344">
        <ele>570</ele>
        <time>2012-05-02T10:12:39Z</time>
      </trkpt>
      <trkpt lat="44.09288" lon="2.96332">
        <ele>568.2</ele>
        <time>2012-05-02T10:12:52Z</time>
      </trkpt>
      <trkpt lat="44.09279" lon="2.9633">
        <ele>566.8</ele>
        <time>2012-05-02T10:12:58Z</time>
      </trkpt>
      <trkpt lat="44.09271" lon="2.96331">
        <ele>565.9</ele>
        <time>2012-05-02T10:13:04Z</time>
      </trkpt>
      <trkpt lat="44.09264" lon="2.96338">
        <ele>564.2</ele>
        <time>2012-05-02T10:13:11Z</time>
      </trkpt>
      <trkpt lat="44.09255" lon="2.96342">
        <ele>562.9</ele>
        <time>2012-05-02T10:13:24Z</time>
      </trkpt>
      <trkpt lat="44.09254" lon="2.96354">
        <ele>561</ele>
        <time>2012-05-02T10:14:25Z</time>
      </trkpt>
      <trkpt lat="44.09253" lon="2.96355">
        <ele>561</ele>
        <time>2012-05-02T10:14:26Z</time>
      </trkpt>
      <trkpt lat="44.0924" lon="2.96365">
        <ele>559.9</ele>
        <time>2012-05-02T10:14:39Z</time>
      </trkpt>
      <trkpt lat="44.09232" lon="2.96365">
        <ele>558.8</ele>
        <time>2012-05-02T10:14:46Z</time>
      </trkpt>
      <trkpt lat="44.09223" lon="2.96362">
        <ele>557.7</ele>
        <time>2012-05-02T10:14:54Z</time>
      </trkpt>
      <trkpt lat="44.09215" lon="2.96358">
        <ele>552.4</ele>
        <time>2012-05-02T10:15:10Z</time>
      </trkpt>
      <trkpt lat="44.09208" lon="2.96352">
        <ele>550.1</ele>
        <time>2012-05-02T10:15:18Z</time>
      </trkpt>
      <trkpt lat="44.09203" lon="2.96343">
        <ele>548.6</ele>
        <time>2012-05-02T10:15:26Z</time>
      </trkpt>
      <trkpt lat="44.09202" lon="2.96342">
        <ele>548.9</ele>
        <time>2012-05-02T10:15:27Z</time>
      </trkpt>
      <trkpt lat="44.09188" lon="2.96334">
        <ele>545.5</ele>
        <time>2012-05-02T10:15:42Z</time>
      </trkpt>
      <trkpt lat="44.0918" lon="2.9633">
        <ele>543.2</ele>
        <time>2012-05-02T10:15:50Z</time>
      </trkpt>
      <trkpt lat="44.09172" lon="2.96329">
        <ele>540.1</ele>
        <time>2012-05-02T10:15:57Z</time>
      </trkpt>
      <trkpt lat="44.09164" lon="2.96329">
        <ele>537.9</ele>
        <time>2012-05-02T10:16:04Z</time>
      </trkpt>
      <trkpt lat="44.09155" lon="2.96327">
        <ele>535</ele>
        <time>2012-05-02T10:16:13Z</time>
      </trkpt>
      <trkpt lat="44.09148" lon="2.96326">
        <ele>532.1</ele>
        <time>2012-05-02T10:16:20Z</time>
      </trkpt>
      <trkpt lat="44.09139" lon="2.96327">
        <ele>529.6</ele>
        <time>2012-05-02T10:16:27Z</time>
      </trkpt>
      <trkpt lat="44.09138" lon="2.96326">
        <ele>529.6</ele>
        <time>2012-05-02T10:16:28Z</time>
      </trkpt>
      <trkpt lat="44.09124" lon="2.96316">
        <ele>524.6</ele>
        <time>2012-05-02T10:16:46Z</time>
      </trkpt>
      <trkpt lat="44.09118" lon="2.96309">
        <ele>522.2</ele>
        <time>2012-05-02T10:16:54Z</time>
      </trkpt>
      <trkpt lat="44.0911" lon="2.96306">
        <ele>517</ele>
        <time>2012-05-02T10:17:24Z</time>
      </trkpt>
      <trkpt lat="44.09101" lon="2.96307">
        <ele>514.1</ele>
        <time>2012-05-02T10:17:33Z</time>
      </trkpt>
      <trkpt lat="44.09101" lon="2.96308">
        <ele>513.3</ele>
        <time>2012-05-02T10:17:34Z</time>
      </trkpt>
      <trkpt lat="44.09086" lon="2.963">
        <ele>507.1</ele>
        <time>2012-05-02T10:17:51Z</time>
      </trkpt>
      <trkpt lat="44.09078" lon="2.96294">
        <ele>505.3</ele>
        <time>2012-05-02T10:17:59Z</time>
      </trkpt>
      <trkpt lat="44.09069" lon="2.96295">
        <ele>505.5</ele>
        <time>2012-05-02T10:18:10Z</time>
      </trkpt>
      <trkpt lat="44.09061" lon="2.96292">
        <ele>502.1</ele>
        <time>2012-05-02T10:18:18Z</time>
      </trkpt>
      <trkpt lat="44.09053" lon="2.96289">
        <ele>501</ele>
        <time>2012-05-02T10:18:25Z</time>
      </trkpt>
      <trkpt lat="44.09048" lon="2.96282">
        <ele>498.5</ele>
        <time>2012-05-02T10:18:32Z</time>
      </trkpt>
      <trkpt lat="44.0904" lon="2.96275">
        <ele>495.9</ele>
        <time>2012-05-02T10:18:40Z</time>
      </trkpt>
      <trkpt lat="44.09039" lon="2.96275">
        <ele>495.6</ele>
        <time>2012-05-02T10:18:41Z</time>
      </trkpt>
      <trkpt lat="44.09023" lon="2.96273">
        <ele>488.4</ele>
        <time>2012-05-02T10:19:39Z</time>
      </trkpt>
      <trkpt lat="44.09014" lon="2.96273">
        <ele>486.3</ele>
        <time>2012-05-02T10:19:48Z</time>
      </trkpt>
      <trkpt lat="44.09014" lon="2.96273">
        <ele>486</ele>
        <time>2012-05-02T10:19:49Z</time>
      </trkpt>
      <trkpt lat="44.08997" lon="2.96274">
        <ele>479</ele>
        <time>2012-05-02T10:20:06Z</time>
      </trkpt>
      <trkpt lat="44.08988" lon="2.96274">
        <ele>476.5</ele>
        <time>2012-05-02T10:20:14Z</time>
      </trkpt>
      <trkpt lat="44.08979" lon="2.96273">
        <ele>474</ele>
        <time>2012-05-02T10:20:21Z</time>
      </trkpt>
      <trkpt lat="44.08971" lon="2.96273">
        <ele>470.8</ele>
        <time>2012-05-02T10:20:31Z</time>
      </trkpt>
      <trkpt lat="44.08962" lon="2.96272">
        <ele>468</ele>
        <time>2012-05-02T10:20:40Z</time>
      </trkpt>
      <trkpt lat="44.08955" lon="2.96264">
        <ele>463.9</ele>
        <time>2012-05-02T10:20:49Z</time>
      </trkpt>
      <trkpt lat="44.08955" lon="2.96263">
        <ele>463.5</ele>
        <time>2012-05-02T10:20:50Z</time>
      </trkpt>
      <trkpt lat="44.0894" lon="2.96254">
        <ele>457.7</ele>
        <time>2012-05-02T10:21:09Z</time>
      </trkpt>
      <trkpt lat="44.08931" lon="2.96255">
        <ele>455.4</ele>
        <time>2012-05-02T10:21:19Z</time>
      </trkpt>
      <trkpt lat="44.08924" lon="2.96259">
        <ele>452.1</ele>
        <time>2012-05-02T10:21:27Z</time>
      </trkpt>
      <trkpt lat="44.08917" lon="2.96265">
        <ele>448.8</ele>
        <time>2012-05-02T10:21:36Z</time>
      </trkpt>
      <trkpt lat="44.08909" lon="2.96269">
        <ele>443</ele>
        <time>2012-05-02T10:21:56Z</time>
      </trkpt>
      <trkpt lat="44.08908" lon="2.96269">
        <ele>442.4</ele>
        <time>2012-05-02T10:21:57Z</time>
      </trkpt>
      <trkpt lat="44.08892" lon="2.9627">
        <ele>436.8</ele>
        <time>2012-05-02T10:22:21Z</time>
      </trkpt>
      <trkpt lat="44.08884" lon="2.9627">
        <ele>433.4</ele>
        <time>2012-05-02T10:22:30Z</time>
      </trkpt>
      <trkpt lat="44.08875" lon="2.96272">
        <ele>431.1</ele>
        <time>2012-05-02T10:22:40Z</time>
      </trkpt>
      <trkpt lat="44.08867" lon="2.96276">
        <ele>427.8</ele>
        <time>2012-05-02T10:22:52Z</time>
      </trkpt>
      <trkpt lat="44.08858" lon="2.96278">
        <ele>424.7</ele>
        <time>2012-05-02T10:23:02Z</time>
      </trkpt>
      <trkpt lat="44.08857" lon="2.96279">
        <ele>424.5</ele>
        <time>2012-05-02T10:23:03Z</time>
      </trkpt>
      <trkpt lat="44.08841" lon="2.96281">
        <ele>417.6</ele>
        <time>2012-05-02T10:23:23Z</time>
      </trkpt>
      <trkpt lat="44.08833" lon="2.96282">
        <ele>413.9</ele>
        <time>2012-05-02T10:23:32Z</time>
      </trkpt>
      <trkpt lat="44.08826" lon="2.96273">
        <ele>409.3</ele>
        <time>2012-05-02T10:23:49Z</time>
      </trkpt>
      <trkpt lat="44.08828" lon="2.96262">
        <ele>408.1</ele>
        <time>2012-05-02T10:23:56Z</time>
      </trkpt>
      <trkpt lat="44.0882" lon="2.96259">
        <ele>405.1</ele>
        <time>2012-05-02T10:24:23Z</time>
      </trkpt>
      <trkpt lat="44.0882" lon="2.9626">
        <ele>405</ele>
        <time>2012-05-02T10:24:24Z</time>
      </trkpt>
      <trkpt lat="44.08811" lon="2.96263">
        <ele>399.9</ele>
        <time>2012-05-02T10:25:24Z</time>
      </trkpt>
      <trkpt lat="44.0881" lon="2.96262">
        <ele>399.6</ele>
        <time>2012-05-02T10:25:25Z</time>
      </trkpt>
      <trkpt lat="44.08796" lon="2.96267">
        <ele>394.6</ele>
        <time>2012-05-02T10:25:43Z</time>
      </trkpt>
      <trkpt lat="44.08789" lon="2.96273">
        <ele>392.8</ele>
        <time>2012-05-02T10:25:50Z</time>
      </trkpt>
      <trkpt lat="44.08783" lon="2.96281">
        <ele>392</ele>
        <time>2012-05-02T10:25:56Z</time>
      </trkpt>
      <trkpt lat="44.08776" lon="2.96288">
        <ele>390.4</ele>
        <time>2012-05-02T10:26:02Z</time>
      </trkpt>
      <trkpt lat="44.08771" lon="2.96296">
        <ele>389.9</ele>
        <time>2012-05-02T10:26:09Z</time>
      </trkpt>
      <trkpt lat="44.08766" lon="2.96304">
        <ele>389</ele>
        <time>2012-05-02T10:26:15Z</time>
      </trkpt>
      <trkpt lat="44.08761" lon="2.96315">
        <ele>387.5</ele>
        <time>2012-05-02T10:26:22Z</time>
      </trkpt>
      <trkpt lat="44.08755" lon="2.96324">
        <ele>385.9</ele>
        <time>2012-05-02T10:26:29Z</time>
      </trkpt>
      <trkpt lat="44.08754" lon="2.96325">
        <ele>385.2</ele>
        <time>2012-05-02T10:26:30Z</time>
      </trkpt>
      <trkpt lat="44.08745" lon="2.96341">
        <ele>381.9</ele>
        <time>2012-05-02T10:26:43Z</time>
      </trkpt>
      <trkpt lat="44.0874" lon="2.9635">
        <ele>378.3</ele>
        <time>2012-05-02T10:26:50Z</time>
      </trkpt>
      <trkpt lat="44.08734" lon="2.96358">
        <ele>376.5</ele>
        <time>2012-05-02T10:26:59Z</time>
      </trkpt>
      <trkpt lat="44.08729" lon="2.96367">
        <ele>373.6</ele>
        <time>2012-05-02T10:27:05Z</time>
      </trkpt>
      <trkpt lat="44.08725" lon="2.96376">
        <ele>372.5</ele>
        <time>2012-05-02T10:27:09Z</time>
      </trkpt>
      <trkpt lat="44.08722" lon="2.96387">
        <ele>371.6</ele>
        <time>2012-05-02T10:27:14Z</time>
      </trkpt>
      <trkpt lat="44.0872" lon="2.96399">
        <ele>370.3</ele>
        <time>2012-05-02T10:27:21Z</time>
      </trkpt>
      <trkpt lat="44.08718" lon="2.9641">
        <ele>368.1</ele>
        <time>2012-05-02T10:27:28Z</time>
      </trkpt>
      <trkpt lat="44.08716" lon="2.96421">
        <ele>366.1</ele>
        <time>2012-05-02T10:27:35Z</time>
      </trkpt>
      <trkpt lat="44.08715" lon="2.96422">
        <ele>366</ele>
        <time>2012-05-02T10:27:36Z</time>
      </trkpt>
      <trkpt lat="44.08699" lon="2.96426">
        <ele>361.4</ele>
        <time>2012-05-02T10:27:51Z</time>
      </trkpt>
      <trkpt lat="44.08691" lon="2.96421">
        <ele>360.3</ele>
        <time>2012-05-02T10:27:58Z</time>
      </trkpt>
      <trkpt lat="44.08683" lon="2.96417">
        <ele>357.2</ele>
        <time>2012-05-02T10:28:05Z</time>
      </trkpt>
      <trkpt lat="44.08675" lon="2.96414">
        <ele>358.1</ele>
        <time>2012-05-02T10:28:12Z</time>
      </trkpt>
      <trkpt lat="44.08668" lon="2.96409">
        <ele>357.6</ele>
        <time>2012-05-02T10:28:18Z</time>
      </trkpt>
      <trkpt lat="44.08661" lon="2.96404">
        <ele>358.4</ele>
        <time>2012-05-02T10:28:24Z</time>
      </trkpt>
      <trkpt lat="44.08653" lon="2.96399">
        <ele>359.1</ele>
        <time>2012-05-02T10:28:31Z</time>
      </trkpt>
      <trkpt lat="44.08646" lon="2.96394">
        <ele>356.2</ele>
        <time>2012-05-02T10:28:37Z</time>
      </trkpt>
      <trkpt lat="44.08644" lon="2.96393">
        <ele>356.3</ele>
        <time>2012-05-02T10:28:38Z</time>
      </trkpt>
      <trkpt lat="44.0863" lon="2.96385">
        <ele>354.7</ele>
        <time>2012-05-02T10:28:52Z</time>
      </trkpt>
      <trkpt lat="44.08623" lon="2.96377">
        <ele>352.9</ele>
        <time>2012-05-02T10:29:12Z</time>
      </trkpt>
      <trkpt lat="44.08615" lon="2.96373">
        <ele>353.6</ele>
        <time>2012-05-02T10:29:19Z</time>
      </trkpt>
      <trkpt lat="44.08607" lon="2.96368">
        <ele>354.4</ele>
        <time>2012-05-02T10:29:25Z</time>
      </trkpt>
      <trkpt lat="44.086" lon="2.96364">
        <ele>354.2</ele>
        <time>2012-05-02T10:29:31Z</time>
      </trkpt>
      <trkpt lat="44.08592" lon="2.96359">
        <ele>353</ele>
        <time>2012-05-02T10:29:37Z</time>
      </trkpt>
      <trkpt lat="44.08585" lon="2.96353">
        <ele>353.5</ele>
        <time>2012-05-02T10:29:43Z</time>
      </trkpt>
      <trkpt lat="44.08584" lon="2.96352">
        <ele>353.3</ele>
        <time>2012-05-02T10:29:44Z</time>
      </trkpt>
      <trkpt lat="44.08572" lon="2.96341">
        <ele>353.8</ele>
        <time>2012-05-02T10:29:54Z</time>
      </trkpt>
      <trkpt lat="44.08564" lon="2.96335">
        <ele>353.8</ele>
        <time>2012-05-02T10:30:01Z</time>
      </trkpt>
      <trkpt lat="44.08555" lon="2.96332">
        <ele>353.6</ele>
        <time>2012-05-02T10:30:07Z</time>
      </trkpt>
      <trkpt lat="44.08547" lon="2.9633">
        <ele>355.6</ele>
        <time>2012-05-02T10:30:14Z</time>
      </trkpt>
      <trkpt lat="44.08539" lon="2.96325">
        <ele>356.1</ele>
        <time>2012-05-02T10:30:25Z</time>
      </trkpt>
      <trkpt lat="44.08533" lon="2.96318">
        <ele>355.8</ele>
        <time>2012-05-02T10:30:31Z</time>
      </trkpt>
      <trkpt lat="44.08526" lon="2.9631">
        <ele>357.5</ele>
        <time>2012-05-02T10:30:37Z</time>
      </trkpt>
      <trkpt lat="44.08519" lon="2.96302">
        <ele>357.5</ele>
        <time>2012-05-02T10:30:43Z</time>
      </trkpt>
      <trkpt lat="44.08512" lon="2.96296">
        <ele>358</ele>
        <time>2012-05-02T10:30:49Z</time>
      </trkpt>
      <trkpt lat="44.08511" lon="2.96295">
        <ele>358</ele>
        <time>2012-05-02T10:30:50Z</time>
      </trkpt>
      <trkpt lat="44.08499" lon="2.96283">
        <ele>356.7</ele>
        <time>2012-05-02T10:31:02Z</time>
      </trkpt>
      <trkpt lat="44.08491" lon="2.96278">
        <ele>356</ele>
        <time>2012-05-02T10:31:09Z</time>
      </trkpt>
      <trkpt lat="44.08486" lon="2.96269">
        <ele>356.4</ele>
        <time>2012-05-02T10:31:35Z</time>
      </trkpt>
      <trkpt lat="44.08479" lon="2.96262">
        <ele>360</ele>
        <time>2012-05-02T10:31:44Z</time>
      </trkpt>
      <trkpt lat="44.08471" lon="2.96259">
        <ele>358.3</ele>
        <time>2012-05-02T10:31:51Z</time>
      </trkpt>
      <trkpt lat="44.0847" lon="2.96259">
        <ele>358.6</ele>
        <time>2012-05-02T10:31:52Z</time>
      </trkpt>
      <trkpt lat="44.08457" lon="2.96249">
        <ele>355.9</ele>
        <time>2012-05-02T10:32:02Z</time>
      </trkpt>
      <trkpt lat="44.0845" lon="2.96245">
        <ele>355.8</ele>
        <time>2012-05-02T10:32:07Z</time>
      </trkpt>
      <trkpt lat="44.08443" lon="2.96241">
        <ele>356.2</ele>
        <time>2012-05-02T10:32:12Z</time>
      </trkpt>
      <trkpt lat="44.08434" lon="2.96237">
        <ele>356.5</ele>
        <time>2012-05-02T10:32:18Z</time>
      </trkpt>
      <trkpt lat="44.08427" lon="2.96232">
        <ele>357.4</ele>
        <time>2012-05-02T10:32:24Z</time>
      </trkpt>
      <trkpt lat="44.0842" lon="2.96228">
        <ele>358.1</ele>
        <time>2012-05-02T10:32:29Z</time>
      </trkpt>
      <trkpt lat="44.08411" lon="2.96223">
        <ele>359.9</ele>
        <time>2012-05-02T10:32:35Z</time>
      </trkpt>
      <trkpt lat="44.08404" lon="2.96217">
        <ele>360.5</ele>
        <time>2012-05-02T10:32:42Z</time>
      </trkpt>
      <trkpt lat="44.08398" lon="2.96208">
        <ele>361.3</ele>
        <time>2012-05-02T10:32:50Z</time>
      </trkpt>
      <trkpt lat="44.08391" lon="2.96202">
        <ele>362</ele>
        <time>2012-05-02T10:32:55Z</time>
      </trkpt>
      <trkpt lat="44.0839" lon="2.96201">
        <ele>362.1</ele>
        <time>2012-05-02T10:32:56Z</time>
      </trkpt>
      <trkpt lat="44.08379" lon="2.96189">
        <ele>363.1</ele>
        <time>2012-05-02T10:33:06Z</time>
      </trkpt>
      <trkpt lat="44.08372" lon="2.9618">
        <ele>364.1</ele>
        <time>2012-05-02T10:33:13Z</time>
      </trkpt>
      <trkpt lat="44.08365" lon="2.96176">
        <ele>364.2</ele>
        <time>2012-05-02T10:33:19Z</time>
      </trkpt>
      <trkpt lat="44.08358" lon="2.96181">
        <ele>364.3</ele>
        <time>2012-05-02T10:33:26Z</time>
      </trkpt>
      <trkpt lat="44.0835" lon="2.96182">
        <ele>363.4</ele>
        <time>2012-05-02T10:33:32Z</time>
      </trkpt>
      <trkpt lat="44.08343" lon="2.96176">
        <ele>362.6</ele>
        <time>2012-05-02T10:33:38Z</time>
      </trkpt>
      <trkpt lat="44.08337" lon="2.96168">
        <ele>360.7</ele>
        <time>2012-05-02T10:33:43Z</time>
      </trkpt>
      <trkpt lat="44.08332" lon="2.96159">
        <ele>361.5</ele>
        <time>2012-05-02T10:33:49Z</time>
      </trkpt>
      <trkpt lat="44.08327" lon="2.9615">
        <ele>361</ele>
        <time>2012-05-02T10:33:55Z</time>
      </trkpt>
      <trkpt lat="44.08325" lon="2.96139">
        <ele>360.8</ele>
        <time>2012-05-02T10:34:02Z</time>
      </trkpt>
      <trkpt lat="44.08324" lon="2.96137">
        <ele>360.8</ele>
        <time>2012-05-02T10:34:03Z</time>
      </trkpt>
      <trkpt lat="44.08321" lon="2.96124">
        <ele>360.8</ele>
        <time>2012-05-02T10:34:16Z</time>
      </trkpt>
      <trkpt lat="44.08321" lon="2.96124">
        <ele>360.8</ele>
        <time>2012-05-02T10:34:16Z</time>
      </trkpt>
    </trkseg>
  </trk>
</gpx>